Regional Weather Roundup
Issued by NWS State College, PA

Home | Current Version | Previous Version | Text Only | Print | Product List | Glossary Off
Versions: 1 2 3 4 5 6 7 8 9 10 11 12 13 14 15 16 17 18 19 20 21 22 23 24 25 26 27 28 29 30 31 32 33 34 35 36 37 38 39 40 41 42 43 44 45 46 47 48 49 50

000
ASUS41 KCTP 160503
RWRCTP

REGIONAL WEATHER ROUNDUP
NATIONAL WEATHER SERVICE STATE COLLEGE PA
100 AM EDT TUE SEP 16 2014

Note: "fair" indicates few or no clouds below 12,000 feet with no
significant weather and/or obstructions to visibility.

* = STATION THAT DOES NOT REPORT PRECIPITATION /E.G. RAIN...SNOW...ETC/
    THUNDER OR FOG.

PAZ002>004-007>009-013>016-020>023-029>032-160600-
WESTERN PENNSYLVANIA

CITY           SKY/WX    TMP DP  RH WIND       PRES   REMARKS
ERIE           RAIN      56  53  90 CALM      30.06F FOG
MEADVILLE      LGT RAIN  53  50  89 NW5       30.07S
FRANKLIN*      CLOUDY    54  50  87 N3        30.07F
NEW CASTLE     LGT RAIN  56  55  96 CALM      30.07S FOG
BEAVER COUNTY  NOT AVBL
BUTLER*        CLOUDY    55  52  88 N3        30.07R
PITTSBURGH INT CLOUDY    60  52  74 SW5       30.04S
PITTSBURGH     CLOUDY    59  50  72 S8        30.04F
INDIANA*       CLOUDY    55  52  88 CALM      30.08F
LATROBE        MOCLDY    55  54  94 SW5       30.05F
WASHINGTON CO* CLOUDY    57  52  82 CALM      30.06S
$$

PAZ004>006-010>012-017>019-024>028-033>037-041-042-045-046-049>053-160600-
CENTRAL PENNSYLVANIA

CITY           SKY/WX    TMP DP  RH WIND       PRES   REMARKS
BRADFORD       RAIN      52  50  93 S3        30.06F FOG
DUBOIS         CLOUDY    54  52  93 N7        30.06S
CLEARFIELD     LGT RAIN  54  52  93 CALM      30.05F
JOHNSTOWN      CLOUDY    54  48  80 SW6       30.06F
ALTOONA        MOCLDY    52  50  93 S3        30.05F
STATE COLLEGE  CLOUDY    57  51  81 W3        30.04F
WILLIAMSPORT   CLOUDY    56  50  80 CALM      30.02F
SELINSGROVE    CLOUDY    53  51  93 CALM      30.04F
FT INDIANTOWN  CLOUDY    52  52 100 CALM      30.05F
CAPITAL CITY   PTCLDY    59  53  80 S5        30.04F
HARRISBURG     MOCLDY    58  52  80 E5        30.04F
YORK           MOCLDY    57  54  89 CALM      30.04F
$$

PAZ038>040-043-044-047-048-054-055-060>062-067>071-160600-
EASTERN PENNSYLVANIA

CITY           SKY/WX    TMP DP  RH WIND       PRES   REMARKS
SCRANTON       CLOUDY    55  48  77 E5        30.04F
MOUNT POCONO   CLOUDY    52  47  83 CALM      30.07F
ALLENTOWN      MOCLDY    53  49  86 CALM      30.06F
QUAKERTOWN*    MOCLDY    50  48  93 CALM      30.08F
READING        MOCLDY    56  51  84 CALM      30.05F
LANCASTER      MOCLDY    54  51  90 SE7       30.05F
COATESVILLE    CLOUDY    57  52  82 CALM      30.08S
POTTSTOWN      MOCLDY    54  51  90 CALM      30.08F
BLUE BELL      CLOUDY    54  54 100 CALM      30.07F
DOYLESTOWN     CLOUDY    53  51  93 CALM      30.07F
WILLOW GROVE   NOT AVBL
NORTH PHILA    CLOUDY    61  51  70 CALM      30.09F
PHILADELPHIA   CLOUDY    61  52  72 CALM      30.08F
$$


USA.gov is the U.S. government's official web portal to all federal, state and local government web resources and services.